Location: Dos Palmas
(32.4468°N, 116.8732°W)
Time: 05:39:34
(UTC+00:00)

X-37B - Pass Details

Date: 20 June 2021
Orbit: 383 x 392 km, 45.0° (Epoch: 01 July)

Event Time Altitude Azimuth Distance (km) Brightness Sun altitude
Rises 11:16:58 0° 313° (NW) 2,259 4.4 -15.3°
Reaches altitude 10° 11:19:14 10° 326° (NW) 1,405 3.5 -14.9°
Maximum altitude 11:21:59 27° 26° (NNE) 776 2.9 -14.5°
Drops below altitude 10° 11:24:45 10° 88° (E) 1,405 4.2 -14.1°
Sets 11:27:01 0° 100° (E) 2,259 5.1 -13.7°
